Time,TemperatureF,DewpointF,PressureIn,WindDirection,WindDirectionDegrees,WindSpeedMPH,WindSpeedGustMPH,Humidity,HourlyPrecipIn,Conditions,Clouds,dailyrainin,SoftwareType,DateUTC
2013-05-03 00:02:00,50.0,-99.9,30.30,East,100,5.0,6.0,-999,-99.99,,,-99.99,,2013-05-03 07:02:00,
2013-05-03 00:11:00,50.0,-99.9,30.30,East,94,4.0,5.0,-999,-99.99,,,-99.99,,2013-05-03 07:11:00,
2013-05-03 00:22:00,49.0,-99.9,30.31,NW,316,3.0,6.0,-999,-99.99,,,-99.99,,2013-05-03 07:22:00,
2013-05-03 00:32:00,51.0,-99.9,30.30,North,4,7.0,12.0,-999,-99.99,,,-99.99,,2013-05-03 07:32:00,
2013-05-03 00:42:00,51.0,-99.9,30.31,NNE,25,4.0,7.0,-999,-99.99,,,-99.99,,2013-05-03 07:42:00,
2013-05-03 00:52:00,51.0,-99.9,30.31,NE,42,4.0,6.0,-999,-99.99,,,-99.99,,2013-05-03 07:52:00,
2013-05-03 01:02:00,50.0,-99.9,30.31,SSE,155,2.0,2.0,-999,-99.99,,,-99.99,,2013-05-03 08:02:00,
2013-05-03 01:12:00,49.0,-99.9,30.31,SE,137,1.0,3.0,-999,-99.99,,,-99.99,,2013-05-03 08:12:00,
2013-05-03 01:22:00,49.0,-99.9,30.31,ESE,105,2.0,2.0,-999,-99.99,,,-99.99,,2013-05-03 08:22:00,
2013-05-03 01:32:00,48.0,-99.9,30.31,East,88,2.0,3.0,-999,-99.99,,,-99.99,,2013-05-03 08:32:00,
2013-05-03 01:42:00,48.0,-99.9,30.31,ENE,69,2.0,3.0,-999,-99.99,,,-99.99,,2013-05-03 08:42:00,
2013-05-03 01:53:00,48.0,-99.9,30.32,SSE,149,3.0,4.0,-999,-99.99,,,-99.99,,2013-05-03 08:53:00,
2013-05-03 02:01:00,48.0,-99.9,30.32,WSW,244,2.0,3.0,-999,-99.99,,,-99.99,,2013-05-03 09:01:00,
2013-05-03 02:12:00,48.0,-99.9,30.31,SE,144,3.0,3.0,-999,-99.99,,,-99.99,,2013-05-03 09:12:00,
2013-05-03 02:21:00,48.0,-99.9,30.31,ESE,105,2.0,4.0,-999,-99.99,,,-99.99,,2013-05-03 09:21:00,
2013-05-03 02:33:00,47.0,-99.9,30.31,ENE,76,4.0,6.0,-999,-99.99,,,-99.99,,2013-05-03 09:33:00,
2013-05-03 02:42:00,46.0,-99.9,30.31,NE,52,2.0,4.0,-999,-99.99,,,-99.99,,2013-05-03 09:42:00,
2013-05-03 02:53:00,47.0,-99.9,30.30,East,92,2.0,4.0,-999,-99.99,,,-99.99,,2013-05-03 09:53:00,
2013-05-03 03:03:00,47.0,-99.9,30.31,East,79,4.0,5.0,-999,-99.99,,,-99.99,,2013-05-03 10:03:00,
2013-05-03 03:13:00,47.0,-99.9,30.31,East,82,3.0,5.0,-999,-99.99,,,-99.99,,2013-05-03 10:13:00,
2013-05-03 03:22:00,46.0,-99.9,30.31,North,359,2.0,3.0,-999,-99.99,,,-99.99,,2013-05-03 10:22:00,
2013-05-03 03:32:00,46.0,-99.9,30.31,SE,131,4.0,4.0,-999,-99.99,,,-99.99,,2013-05-03 10:32:00,
2013-05-03 03:42:00,46.0,-99.9,30.31,ESE,107,4.0,6.0,-999,-99.99,,,-99.99,,2013-05-03 10:42:00,
2013-05-03 03:52:00,46.0,-99.9,30.30,East,94,6.0,8.0,-999,-99.99,,,-99.99,,2013-05-03 10:52:00,
2013-05-03 04:02:00,46.0,-99.9,30.31,East,95,4.0,5.0,-999,-99.99,,,-99.99,,2013-05-03 11:02:00,
2013-05-03 04:11:00,46.0,-99.9,30.31,SE,143,1.0,2.0,-999,-99.99,,,-99.99,,2013-05-03 11:11:00,
2013-05-03 04:22:00,46.0,-99.9,30.30,SSW,195,1.0,2.0,-999,-99.99,,,-99.99,,2013-05-03 11:22:00,
2013-05-03 04:32:00,45.0,-99.9,30.30,ENE,60,2.0,3.0,-999,-99.99,,,-99.99,,2013-05-03 11:32:00,
2013-05-03 04:42:00,45.0,-99.9,30.30,East,98,3.0,5.0,-999,-99.99,,,-99.99,,2013-05-03 11:42:00,
2013-05-03 04:52:00,45.0,-99.9,30.30,East,95,5.0,7.0,-999,-99.99,,,-99.99,,2013-05-03 11:52:00,
2013-05-03 05:02:00,45.0,-99.9,30.30,ESE,102,3.0,5.0,-999,-99.99,,,-99.99,,2013-05-03 12:02:00,
2013-05-03 05:12:00,45.0,-99.9,30.30,East,90,1.0,3.0,-999,-99.99,,,-99.99,,2013-05-03 12:12:00,
2013-05-03 05:22:00,44.0,-99.9,30.30,NE,52,2.0,3.0,-999,-99.99,,,-99.99,,2013-05-03 12:22:00,
2013-05-03 05:32:00,44.0,-99.9,30.30,ENE,58,2.0,4.0,-999,-99.99,,,-99.99,,2013-05-03 12:32:00,
2013-05-03 05:42:00,44.0,-99.9,30.29,East,93,5.0,5.0,-999,-99.99,,,-99.99,,2013-05-03 12:42:00,
2013-05-03 05:52:00,44.0,-99.9,30.29,East,101,6.0,6.0,-999,-99.99,,,-99.99,,2013-05-03 12:52:00,
2013-05-03 06:01:00,44.0,-99.9,30.29,East,90,5.0,6.0,-999,-99.99,,,-99.99,,2013-05-03 13:01:00,
2013-05-03 06:11:00,44.0,-99.9,30.29,East,94,4.0,6.0,-999,-99.99,,,-99.99,,2013-05-03 13:11:00,
2013-05-03 06:22:00,43.0,-99.9,30.29,East,94,6.0,7.0,-999,-99.99,,,-99.99,,2013-05-03 13:22:00,
2013-05-03 06:32:00,44.0,-99.9,30.29,East,93,5.0,6.0,-999,-99.99,,,-99.99,,2013-05-03 13:32:00,
2013-05-03 06:42:00,44.0,-99.9,30.29,East,91,4.0,6.0,-999,-99.99,,,-99.99,,2013-05-03 13:42:00,
2013-05-03 06:52:00,43.0,-99.9,30.29,ESE,106,3.0,4.0,-999,-99.99,,,-99.99,,2013-05-03 13:52:00,
2013-05-03 07:02:00,44.0,-99.9,30.30,NNE,15,-999.0,2.0,-999,-99.99,,,-99.99,,2013-05-03 14:02:00,
2013-05-03 07:11:00,44.0,-99.9,30.30,NE,52,-999.0,1.0,-999,-99.99,,,-99.99,,2013-05-03 14:11:00,
2013-05-03 07:22:00,44.0,-99.9,30.30,East,83,2.0,4.0,-999,-99.99,,,-99.99,,2013-05-03 14:22:00,
2013-05-03 07:32:00,44.0,-99.9,30.30,East,88,3.0,4.0,-999,-99.99,,,-99.99,,2013-05-03 14:32:00,
2013-05-03 07:42:00,44.0,-99.9,30.31,East,92,2.0,4.0,-999,-99.99,,,-99.99,,2013-05-03 14:42:00,
2013-05-03 07:52:00,44.0,-99.9,30.31,East,97,2.0,2.0,-999,-99.99,,,-99.99,,2013-05-03 14:52:00,
2013-05-03 08:01:00,45.0,-99.9,30.31,East,96,3.0,3.0,-999,-99.99,,,-99.99,,2013-05-03 15:01:00,
2013-05-03 08:11:00,45.0,-99.9,30.31,East,97,3.0,4.0,-999,-99.99,,,-99.99,,2013-05-03 15:11:00,
2013-05-03 08:22:00,45.0,-99.9,30.31,ESE,115,4.0,5.0,-999,-99.99,,,-99.99,,2013-05-03 15:22:00,
2013-05-03 08:32:00,45.0,-99.9,30.31,ESE,120,3.0,5.0,-999,-99.99,,,-99.99,,2013-05-03 15:32:00,
2013-05-03 08:43:00,46.0,-99.9,30.31,ESE,103,2.0,3.0,-999,-99.99,,,-99.99,,2013-05-03 15:43:00,
2013-05-03 08:53:00,47.0,-99.9,30.31,SE,124,1.0,2.0,-999,-99.99,,,-99.99,,2013-05-03 15:53:00,
2013-05-03 09:03:00,48.0,-99.9,30.30,WSW,246,-999.0,2.0,-999,-99.99,,,-99.99,,2013-05-03 16:03:00,
2013-05-03 09:13:00,49.0,-99.9,30.30,NE,53,1.0,2.0,-999,-99.99,,,-99.99,,2013-05-03 16:13:00,
2013-05-03 09:23:00,50.0,-99.9,30.30,NNE,20,1.0,2.0,-999,-99.99,,,-99.99,,2013-05-03 16:23:00,
2013-05-03 09:33:00,50.0,-99.9,30.29,WSW,248,-999.0,2.0,-999,-99.99,,,-99.99,,2013-05-03 16:33:00,
2013-05-03 09:42:00,51.0,-99.9,30.30,West,274,1.0,1.0,-999,-99.99,,,-99.99,,2013-05-03 16:42:00,
2013-05-03 09:52:00,51.0,-99.9,30.29,WNW,296,3.0,4.0,-999,-99.99,,,-99.99,,2013-05-03 16:52:00,
2013-05-03 10:02:00,53.0,-99.9,30.29,NW,320,4.0,6.0,-999,-99.99,,,-99.99,,2013-05-03 17:02:00,
2013-05-03 10:12:00,53.0,-99.9,30.29,NW,309,5.0,7.0,-999,-99.99,,,-99.99,,2013-05-03 17:12:00,
2013-05-03 10:23:00,53.0,-99.9,30.28,NW,311,4.0,6.0,-999,-99.99,,,-99.99,,2013-05-03 17:23:00,
2013-05-03 10:32:00,54.0,-99.9,30.28,NW,309,6.0,7.0,-999,-99.99,,,-99.99,,2013-05-03 17:32:00,
2013-05-03 10:42:00,54.0,-99.9,30.28,NW,313,6.0,9.0,-999,-99.99,,,-99.99,,2013-05-03 17:42:00,
2013-05-03 10:52:00,54.0,-99.9,30.28,NW,319,7.0,9.0,-999,-99.99,,,-99.99,,2013-05-03 17:52:00,
2013-05-03 11:01:00,54.0,-99.9,30.28,NW,325,9.0,13.0,-999,-99.99,,,-99.99,,2013-05-03 18:01:00,
2013-05-03 11:12:00,54.0,-99.9,30.28,NNW,328,13.0,16.0,-999,-99.99,,,-99.99,,2013-05-03 18:12:00,
2013-05-03 11:22:00,55.0,-99.9,30.27,NNW,336,9.0,13.0,-999,-99.99,,,-99.99,,2013-05-03 18:22:00,
2013-05-03 11:32:00,57.0,-99.9,30.27,NW,321,6.0,9.0,-999,-99.99,,,-99.99,,2013-05-03 18:32:00,
2013-05-03 11:42:00,57.0,-99.9,30.27,WNW,294,5.0,8.0,-999,-99.99,,,-99.99,,2013-05-03 18:42:00,
2013-05-03 11:52:00,56.0,-99.9,30.27,NW,316,10.0,12.0,-999,-99.99,,,-99.99,,2013-05-03 18:52:00,
2013-05-03 12:01:00,56.0,-99.9,30.27,NW,321,10.0,13.0,-999,-99.99,,,-99.99,,2013-05-03 19:01:00,
2013-05-03 12:11:00,56.0,-99.9,30.26,NW,315,9.0,12.0,-999,-99.99,,,-99.99,,2013-05-03 19:11:00,
2013-05-03 12:22:00,56.0,-99.9,30.26,NW,323,13.0,15.0,-999,-99.99,,,-99.99,,2013-05-03 19:22:00,
2013-05-03 12:32:00,55.0,-99.9,30.26,NNW,330,16.0,19.0,-999,-99.99,,,-99.99,,2013-05-03 19:32:00,
2013-05-03 12:42:00,55.0,-99.9,30.26,NNW,335,13.0,18.0,-999,-99.99,,,-99.99,,2013-05-03 19:42:00,
2013-05-03 12:52:00,55.0,-99.9,30.25,NNW,340,13.0,21.0,-999,-99.99,,,-99.99,,2013-05-03 19:52:00,
2013-05-03 13:02:00,55.0,-99.9,30.25,NNW,341,13.0,18.0,-999,-99.99,,,-99.99,,2013-05-03 20:02:00,
2013-05-03 13:12:00,55.0,-99.9,30.24,NNW,335,16.0,23.0,-999,-99.99,,,-99.99,,2013-05-03 20:12:00,
2013-05-03 13:22:00,55.0,-99.9,30.24,NNW,331,17.0,23.0,-999,-99.99,,,-99.99,,2013-05-03 20:22:00,
2013-05-03 13:32:00,56.0,-99.9,30.24,NNW,342,14.0,23.0,-999,-99.99,,,-99.99,,2013-05-03 20:32:00,
2013-05-03 13:42:00,56.0,-99.9,30.24,NNW,336,16.0,23.0,-999,-99.99,,,-99.99,,2013-05-03 20:42:00,
2013-05-03 13:52:00,55.0,-99.9,30.24,NNW,335,19.0,27.0,-999,-99.99,,,-99.99,,2013-05-03 20:52:00,
2013-05-03 14:02:00,56.0,-99.9,30.24,NNW,343,16.0,26.0,-999,-99.99,,,-99.99,,2013-05-03 21:02:00,
2013-05-03 14:11:00,55.0,-99.9,30.24,NNW,334,17.0,29.0,-999,-99.99,,,-99.99,,2013-05-03 21:11:00,
2013-05-03 14:22:00,55.0,-99.9,30.24,NNW,334,19.0,26.0,-999,-99.99,,,-99.99,,2013-05-03 21:22:00,
2013-05-03 14:33:00,56.0,-99.9,30.23,NNW,338,14.0,24.0,-999,-99.99,,,-99.99,,2013-05-03 21:33:00,
2013-05-03 14:43:00,57.0,-99.9,30.23,NNW,340,14.0,23.0,-999,-99.99,,,-99.99,,2013-05-03 21:43:00,
2013-05-03 14:53:00,57.0,-99.9,30.22,NNW,330,17.0,23.0,-999,-99.99,,,-99.99,,2013-05-03 21:53:00,
2013-05-03 15:03:00,57.0,-99.9,30.22,NNW,329,19.0,23.0,-999,-99.99,,,-99.99,,2013-05-03 22:03:00,
2013-05-03 15:13:00,58.0,-99.9,30.22,NNW,333,15.0,23.0,-999,-99.99,,,-99.99,,2013-05-03 22:13:00,
2013-05-03 15:22:00,59.0,-99.9,30.22,NNW,337,12.0,23.0,-999,-99.99,,,-99.99,,2013-05-03 22:22:00,
2013-05-03 15:32:00,57.0,-99.9,30.22,NNW,331,13.0,22.0,-999,-99.99,,,-99.99,,2013-05-03 22:32:00,
2013-05-03 15:42:00,58.0,-99.9,30.22,NNW,328,14.0,22.0,-999,-99.99,,,-99.99,,2013-05-03 22:42:00,
2013-05-03 15:52:00,57.0,-99.9,30.21,NW,324,13.0,19.0,-999,-99.99,,,-99.99,,2013-05-03 22:52:00,
2013-05-03 16:02:00,58.0,-99.9,30.20,NNW,334,11.0,17.0,-999,-99.99,,,-99.99,,2013-05-03 23:02:00,
2013-05-03 16:11:00,58.0,-99.9,30.20,NW,324,13.0,19.0,-999,-99.99,,,-99.99,,2013-05-03 23:11:00,
2013-05-03 16:22:00,58.0,-99.9,30.19,NNW,332,12.0,19.0,-999,-99.99,,,-99.99,,2013-05-03 23:22:00,
2013-05-03 16:32:00,58.0,-99.9,30.19,NNW,342,13.0,20.0,-999,-99.99,,,-99.99,,2013-05-03 23:32:00,
2013-05-03 16:41:00,57.0,-99.9,30.19,NNW,335,13.0,18.0,-999,-99.99,,,-99.99,,2013-05-03 23:41:00,
2013-05-03 16:52:00,56.0,-99.9,30.19,NNW,334,19.0,28.0,-999,-99.99,,,-99.99,,2013-05-03 23:52:00,
2013-05-03 17:01:00,57.0,-99.9,30.18,NNW,338,18.0,29.0,-999,-99.99,,,-99.99,,2013-05-04 00:01:00,
2013-05-03 17:11:00,57.0,-99.9,30.18,NNW,331,21.0,26.0,-999,-99.99,,,-99.99,,2013-05-04 00:11:00,
2013-05-03 17:23:00,57.0,-99.9,30.18,NNW,333,16.0,24.0,-999,-99.99,,,-99.99,,2013-05-04 00:23:00,
2013-05-03 17:32:00,57.0,-99.9,30.18,NNW,338,17.0,26.0,-999,-99.99,,,-99.99,,2013-05-04 00:32:00,
2013-05-03 17:42:00,57.0,-99.9,30.18,NNW,338,16.0,25.0,-999,-99.99,,,-99.99,,2013-05-04 00:42:00,
2013-05-03 17:52:00,56.0,-99.9,30.18,NNW,341,14.0,23.0,-999,-99.99,,,-99.99,,2013-05-04 00:52:00,
2013-05-03 18:01:00,56.0,-99.9,30.17,NW,325,16.0,22.0,-999,-99.99,,,-99.99,,2013-05-04 01:01:00,
2013-05-03 18:11:00,56.0,-99.9,30.17,NNW,332,17.0,26.0,-999,-99.99,,,-99.99,,2013-05-04 01:11:00,
2013-05-03 18:21:00,56.0,-99.9,30.17,NNW,333,19.0,26.0,-999,-99.99,,,-99.99,,2013-05-04 01:21:00,
2013-05-03 18:32:00,55.0,-99.9,30.17,NNW,334,18.0,26.0,-999,-99.99,,,-99.99,,2013-05-04 01:32:00,
2013-05-03 18:42:00,55.0,-99.9,30.16,NNW,341,13.0,23.0,-999,-99.99,,,-99.99,,2013-05-04 01:42:00,
2013-05-03 18:52:00,55.0,-99.9,30.16,NNW,331,12.0,18.0,-999,-99.99,,,-99.99,,2013-05-04 01:52:00,
2013-05-03 19:02:00,55.0,-99.9,30.16,NW,321,13.0,17.0,-999,-99.99,,,-99.99,,2013-05-04 02:02:00,
2013-05-03 19:11:00,55.0,-99.9,30.16,NNW,330,11.0,17.0,-999,-99.99,,,-99.99,,2013-05-04 02:11:00,
2013-05-03 19:21:00,55.0,-99.9,30.15,NW,322,11.0,15.0,-999,-99.99,,,-99.99,,2013-05-04 02:21:00,
2013-05-03 19:32:00,55.0,-99.9,30.15,NNW,331,9.0,14.0,-999,-99.99,,,-99.99,,2013-05-04 02:32:00,
2013-05-03 19:42:00,54.0,-99.9,30.14,NNW,327,14.0,16.0,-999,-99.99,,,-99.99,,2013-05-04 02:42:00,
2013-05-03 19:52:00,53.0,-99.9,30.14,NNW,333,14.0,19.0,-999,-99.99,,,-99.99,,2013-05-04 02:52:00,
2013-05-03 20:02:00,54.0,-99.9,30.15,NNW,344,8.0,17.0,-999,-99.99,,,-99.99,,2013-05-04 03:02:00,
2013-05-03 20:11:00,54.0,-99.9,30.15,NNW,347,5.0,14.0,-999,-99.99,,,-99.99,,2013-05-04 03:11:00,
2013-05-03 20:22:00,54.0,-99.9,30.15,NNW,335,8.0,12.0,-999,-99.99,,,-99.99,,2013-05-04 03:22:00,
2013-05-03 20:33:00,53.0,-99.9,30.15,NNW,344,6.0,10.0,-999,-99.99,,,-99.99,,2013-05-04 03:33:00,
2013-05-03 20:43:00,53.0,-99.9,30.15,NNW,333,9.0,12.0,-999,-99.99,,,-99.99,,2013-05-04 03:43:00,
2013-05-03 20:53:00,53.0,-99.9,30.15,NNW,337,5.0,11.0,-999,-99.99,,,-99.99,,2013-05-04 03:53:00,
2013-05-03 21:02:00,52.0,-99.9,30.15,NNW,346,5.0,12.0,-999,-99.99,,,-99.99,,2013-05-04 04:02:00,
2013-05-03 21:13:00,52.0,-99.9,30.15,NNW,338,7.0,13.0,-999,-99.99,,,-99.99,,2013-05-04 04:13:00,
2013-05-03 21:23:00,52.0,-99.9,30.15,North,349,5.0,10.0,-999,-99.99,,,-99.99,,2013-05-04 04:23:00,
2013-05-03 21:33:00,51.0,-99.9,30.16,NNW,347,4.0,7.0,-999,-99.99,,,-99.99,,2013-05-04 04:33:00,
2013-05-03 21:43:00,51.0,-99.9,30.16,North,349,3.0,6.0,-999,-99.99,,,-99.99,,2013-05-04 04:43:00,
2013-05-03 21:53:00,51.0,-99.9,30.16,NNW,345,2.0,4.0,-999,-99.99,,,-99.99,,2013-05-04 04:53:00,
2013-05-03 22:02:00,51.0,-99.9,30.16,North,8,2.0,5.0,-999,-99.99,,,-99.99,,2013-05-04 05:02:00,
2013-05-03 22:12:00,51.0,-99.9,30.16,NW,324,2.0,3.0,-999,-99.99,,,-99.99,,2013-05-04 05:12:00,
2013-05-03 22:22:00,51.0,-99.9,30.16,NW,321,2.0,3.0,-999,-99.99,,,-99.99,,2013-05-04 05:22:00,
2013-05-03 22:32:00,51.0,-99.9,30.16,ENE,70,4.0,5.0,-999,-99.99,,,-99.99,,2013-05-04 05:32:00,
2013-05-03 22:43:00,51.0,-99.9,30.15,ESE,102,7.0,8.0,-999,-99.99,,,-99.99,,2013-05-04 05:43:00,
2013-05-03 22:52:00,51.0,-99.9,30.15,ESE,106,6.0,6.0,-999,-99.99,,,-99.99,,2013-05-04 05:52:00,
2013-05-03 23:02:00,51.0,-99.9,30.15,East,92,3.0,5.0,-999,-99.99,,,-99.99,,2013-05-04 06:02:00,
2013-05-03 23:12:00,51.0,-99.9,30.15,East,93,3.0,4.0,-999,-99.99,,,-99.99,,2013-05-04 06:12:00,
2013-05-03 23:22:00,51.0,-99.9,30.14,ESE,109,4.0,5.0,-999,-99.99,,,-99.99,,2013-05-04 06:22:00,
2013-05-03 23:32:00,50.0,-99.9,30.14,ENE,68,1.0,5.0,-999,-99.99,,,-99.99,,2013-05-04 06:32:00,
2013-05-03 23:42:00,50.0,-99.9,30.13,North,356,1.0,2.0,-999,-99.99,,,-99.99,,2013-05-04 06:42:00,
2013-05-03 23:52:00,50.0,-99.9,30.13,North,359,2.0,4.0,-999,-99.99,,,-99.99,,2013-05-04 06:52:00,